sat.trackr.live / text

‹ back to catalog

STARLINK-5594

NORAD 55742 · 2023-028B

PAYLOAD ACTIVE UNKNOWN

§ Identity

Operator
Country
US
Launch date
2023-03-03
Launch site
AFWTR
Launch vehicle
Mass (kg)
RCS (m²)

Purposes: comms

External: N2YO · Heavens-Above · Gunter

§ Orbital elements

Epoch: 2026-09-20T22:00:03.000096Z

Period
95.47 min
Inclination
70.0007°
Eccentricity
0.0004029
Mean motion
15.08271734 rev/d
Perigee alt
538.7 km
Apogee alt
544.3 km
Semi-major
6,919.6 km
B*
4.1409e-3
RAAN
112.2428°
Arg perigee
275.9671°
Mean anomaly
62.1758°
Rev number
571

§ Raw data

STARLINK-55941 55742U 23028B   26263.91670139  .00064806  00000+0  41409-2 0  99962 55742  70.0007 112.2428 0004029 275.9671  62.1758 15.08271734  5711

JSON: /api/v1/satellites/55742 · /tle

For live sub-satellite position, see the globe view (requires WebGL).

§ Visibility from observer

Set your observer location to see the next 7 days of passes ≥ 10°. The values pass through the URL so the page stays shareable.

No JS? Fill the form by hand. The geolocation button needs JavaScript.